Flag for Afghanistan Weather past 2 weeks in Jalalabad, Afghanistan

Now
52 °F

Fog.


Feels Like: 51 °F
Forecast: 41 / 59 °F
Wind: 5 mph from Northeast

Location: Peshawar Airport

Current Time: Mar 3, 2015 at 8:26:41 AM

Latest Report: Mar 3, 2015 at 7:30 AM


Visibility: 2 mi

Pressure: 30.01 "Hg

Humidity: 88%

Dew point: 48 °F

Location of JalalabadLocation

Historic Weather in Jalalabad — Graph

°F

Jalalabad temperature yesterday

Maximum temperature yesterday: 57 °F (at 3:30 PM)
Minimum temperature yesterday: 48 °F (at 1:30 AM)
Average temperature yesterday: 52 °F

Past Weeks' High & Low Weather Summary

 TemperatureHumidityPressure
High77 °F (Feb 22, 1:30 PM)100% (Feb 23, 10:30 AM)30.15 "Hg (Feb 23, 10:30 AM)
Low46 °F (Feb 17, 5:30 AM)31% (Feb 27, 2:30 PM)29.56 "Hg (Feb 25, 11:30 PM)
Average59 °F72%29.96 "Hg
* Reported Feb 16 6:30 AM — Mar 3 6:30 AM, Jalalabad, Weather by CustomWeather, © 2015

Note: Actual official high and low records may vary slightly from our data, if they occured in-between our weather recording intervals... More about our weather records

Advertising

Jalalabad weather history for previous 24 hours

 ConditionsComfort  
Time TempWeatherWind HumidityBarometerVisibility
6:30 AM
Tue, Mar 3
52 °FFog.5 mph88%30.01 "Hg2 mi
5:30 AM52 °FFog.No wind88%29.98 "Hg2 mi
4:30 AM52 °FThundershowers. Partly cloudy.No wind88%29.98 "Hg2 mi
3:30 AM52 °FThundershowers. Partly cloudy.No wind88%29.98 "Hg2 mi
2:30 AM52 °FThundershowers. Partly cloudy.No wind88%29.98 "Hg2 mi
1:30 AM54 °FThundershowers. Partly cloudy.No wind88%29.98 "Hg2 mi
12:30 AM54 °FThundershowers. Partly cloudy.No wind88%29.98 "Hg2 mi
11:30 PM
Mon, Mar 2
54 °FPartly cloudy.No wind88%30.01 "Hg2 mi
10:30 PM54 °FThundershowers. Partly cloudy.No wind88%30.01 "Hg2 mi
8:30 PM54 °FThundershowers. Partly cloudy.5 mph88%29.98 "Hg2 mi
7:30 PM55 °FThundershowers. Partly cloudy.5 mph82%29.95 "Hg2 mi
6:30 PM55 °FFog.No wind82%29.92 "Hg2 mi
5:30 PM55 °FFog.No wind88%29.92 "Hg2 mi
4:30 PM57 °FFog.No wind82%29.89 "Hg2 mi
3:30 PM57 °FFog.No wind82%29.89 "Hg2 mi
2:30 PM55 °FFog.5 mph82%29.92 "Hg2 mi
12:30 PM55 °FLight rain. More clouds than sun.5 mph88%29.89 "Hg2 mi
11:30 AM54 °FCool.N/A88%N/AN/A
10:30 AM52 °FRain. More clouds than sun.5 mph88%29.89 "Hg2 mi
9:30 AM52 °FRain. More clouds than sun.7 mph88%29.89 "Hg2 mi
8:30 AM50 °FRain. More clouds than sun.5 mph94%29.86 "Hg2 mi
Weather by CustomWeather, © 2015

See weather overviewHow to use our weather pages